Location: Unspecified
(51.0950°N, 12.9690°E)
Time: 20:42:19
(UTC+00:00)

JY1SAT - Pass Details

Date: 30 April 2024
Orbit: 538 x 552 km, 97.5° (Epoch: 25 May)

Event Time Altitude Azimuth Distance (km) Brightness Sun altitude
Exits shadow 21:31:07 - 236° (SW) 2,188 ? -20.6°
Reaches altitude 10° 21:33:22 10° 264° (W) 1,815 ? -20.8°
Maximum altitude 21:34:04 10° 274° (W) 1,791 ? -20.8°
Drops below altitude 10° 21:34:46 10° 284° (WNW) 1,816 ? -20.9°
Sets 21:38:51 0° 327° (NNW) 2,713 ? -21.1°
